User: anonymous   Login
Location: Bangkok
(13.7500°N, 100.5170°E)
Time: 05:25:36
(UTC+07:00)
Language:

ERBS - Orbit

View from above orbital plane
View from above orbital plane
View from above satellite
View from above satellite

Ground track
Ground track

The orbit data is extracted from the following two-line orbital elements,

1 15354U 84108B   15026.13809269  .00005326  00000-0  17645-3 0  6888
2 15354 057.0121 273.3086 0009726 244.0849 115.9199 15.32874739663751
Epoch (UTC): 26 January 2015 03:18:51
Eccentricity: 0.0009726
inclination: 57.0121°
perigee height: 460 km
apogee height: 474 km
right ascension of ascending node: 273.3086°
argument of perigee: 244.0849°
revolutions per day: 15.32874739
mean anomaly at epoch: 115.9199°
orbit number at epoch: 66375

The dashed part of the orbit path shows where the satellite is in the earth's shadow,  

DLR